Regional Weather Roundup
Issued by NWS Albany, NY

Home | Current Version | Previous Version | Text Only | Print | Product List | Glossary On
Versions: 1 2 3 4 5 6 7 8 9 10 11 12 13 14 15 16 17 18 19 20 21 22 23 24 25 26 27 28 29 30 31 32 33 34 35 36 37 38 39 40 41 42 43 44 45 46 47 48 49 50
000
ASUS41 KALY 211010
RWRALY

NEW YORK STATE HOURLY WEATHER ROUNDUP
NATIONAL WEATHER SERVICE ALBANY NY
500 AM EST FRI NOV 21 2014

NOTE: "FAIR" INDICATES FEW OR NO CLOUDS BELOW 12,000 FEET WITH NO
SIGNIFICANT WEATHER AND/OR NO OBSTRUCTIONS TO VISIBILITY.

NYZ032-033-038>043-046>054-057>066-NYZ062>081-211100-
EAST


CITY           SKY/WX    TMP DP  RH WIND       PRES   REMARKS
ALBANY         PTCLDY    22  10  60 W7        30.05R WCI  13
GLENS FALLS    MOCLDY    19  14  81 S7        30.01R WCI  10
POUGHKEEPSIE   CLEAR     25   9  50 SW8       30.09R WCI  16
NEWBURGH       CLEAR     21  12  68 W17       30.09R WCI   7
MONTGOMERY     CLEAR     24   8  50 W7        30.08R WCI  16
WHITE PLAINS   CLEAR     26   8  46 W10       30.08R WCI  16
ISLIP          CLEAR     28  10  46 W13G22    30.08R WCI  17
NEW YORK CITY  CLEAR     29  10  45 W16       30.13R WCI  17
CENTRAL PARK   CLEAR     29   8  41 W10G21    30.14R WCI  20
$$

NYZ005>009-017-018-044>046-055-056-211100-
CENTRAL


CITY           SKY/WX    TMP DP  RH WIND       PRES   REMARKS
FULTON         LGT SNOW  21  17  84 SW15      30.05R VSB 3/4 WCI   8
SYRACUSE       FLURRIES  24  13  62 W20       30.06R WCI  10
ROME           LGT SNOW  20  18  92 W8        30.07R FOG     WCI  10
ELMIRA         CLEAR     19  11  70 W8        30.11R WCI   9
BINGHAMTON     CLEAR     17  12  80 W13       30.02R WCI   4
MONTICELLO     CLEAR     18  10  73 W9        30.02R WCI   6
$$

NYZ026>034-041>043-211100-
NORTH


CITY           SKY/WX    TMP DP  RH WIND       PRES   REMARKS
WATERTOWN      PTCLDY    20  12  71 CALM      30.06R
FORT DRUM      NOT AVBL
MASSENA        CLEAR     16  12  84 SW6       30.03R WCI   7
SARANAC LAKE   CLOUDY    17  12  80 W9        29.88R WCI   6
PLATTSBURGH    PTCLDY    21  14  74 CALM      29.96R
$$

NYZ001>004-010>016-019>021-211100-
WEST


CITY           SKY/WX    TMP DP  RH WIND       PRES   REMARKS
NIAGARA FALLS  CLOUDY    19  11  70 W16       30.15R WCI   4
BUFFALO        CLOUDY    20  11  68 W13G22    30.15R WCI   7
DUNKIRK        CLOUDY    24  12  60 W16G28    30.18R WCI  11
JAMESTOWN      MOCLDY    18   9  68 W10G17    30.11R WCI   6
WELLSVILLE     CLEAR     15   8  73 W12       30.06R WCI   2
ROCHESTER      PTCLDY    19  10  68 W15       30.11R WCI   5
PENN YAN       CLEAR     20  10  65 SW14      30.08R WCI   7
$$

             KEY
       WCI = WIND CHILL INDEX
       VSB = VISIBILITY
       HX  = HEAT INDEX
$$


USA.gov is the U.S. government's official web portal to all federal, state and local government web resources and services.